View from above orbital plane
|
View from above satellite
|
Ground track
|
The orbit data is extracted from the following two-line orbital elements,
1 17911U 87038A 13138.49958654 .00002856 00000-0 20537-3 0 2007
2 17911 082.4920 207.7416 0011597 282.9093 077.0837 15.03861751417101
| Epoch (UTC): | 18 May 2013 11:59:24 |
| Eccentricity: | 0.0011597 |
| inclination: | 82.4920° |
| perigee height: | 547 km |
| apogee height: | 563 km |
| right ascension of ascending node: | 207.7416° |
| argument of perigee: | 282.9093° |
| revolutions per day: | 15.03861751 |
| mean anomaly at epoch: | 77.0837° |
| orbit number at epoch: | 41710 |
The dashed part of the orbit path shows where the satellite is in the earth's shadow,
|
|